COSMOS 1364

Satellite information

Favourite Embed

Satellite Type and Status

PAYLOADIN ORBIT

Key statistics

Satellite COSMOS 1364 at a glance.

Uptime

15885

Days in orbit

Revolutions

≈ 12.4

Per day

Orbit

LEO

Low Earth Orbit

Inclination

74.0

Latest

Satellite identification and parameters

Extended collection of information and parameters for COSMOS 1364.

Object identification

Identified? True

Debris? False

Object name: COSMOS 1364

International designator: 1982-040H

Object number (NORAD): 13167

Object ID (CCSDS): 13167

Country: COMMONWEALTH OF INDEPENDENT STATES (CIS)

Current information (Y/N): Y

RCS size: MEDIUM

Orbital parameters

Period: 115.953 minutes

Inclination: 74.0121 deg

SMA: 7876.756 km

Apoapsis: 1523.745 km

Periapsis: 1473.496 km

RAAN: 215.3969 deg

Eccentricy: 0.0031897

Argument of periapsis: 160.042 deg

Mean anomaly: 272.4979 deg

Mean motion: 12.41885947 rev/day

Mean motion (dot): -0.00000022 rev/day2

B* drag term: -0.000050489 1/REarth

Two-line elements (TLE)

Creation date: Oct. 31, 2025, 11:06 p.m.

Reference frame: TEME

Reference center: EARTH

Epoch: Oct. 31, 2025, 8:23 p.m. UTC

TLE line 0: 0 COSMOS 1364

TLE line 1: 1 13167U 82040H 25304.84979208 -.00000022 00000-0 -50489-4 0 9999

TLE line 2: 2 13167 74.0121 215.3969 0031897 160.0420 272.4979 12.41885947971625

Live tracking on map

Real-time ground track for satellite COSMOS 1364.

In-orbit conjunctions

A list of the most updated potential collisions computed for object COSMOS 1364.

Target Orbit TCA Probability of collision Miss distance Type
FENGYUN 1C DEB SSO 2024-10-20 02:52:30 0.0002613187 469.0 (m) DEBRIS

Associated space launch

Military communications satellites

COSMOS 1364 was lifted into orbit during the mission ‘Kosmos-3M | Strela-1M 233-240’, on board a Kosmos-3M space rocket.

The launch took place on May 6, 1982, 6:07 p.m. from 132/2.

For more information about the launch, click the button.

Launch to space Kosmos-3M | Strela-1M 233-240
Kosmos-3M | Strela-1M 233-240

Agency: N/A

Status: Launch Successful

Launch date: May 6, 1982, 6:07 p.m. UTC

Rocket: Kosmos-3M

Launch pad: 132/2

Location: Plesetsk Cosmodrome, Russian Federation

...

Latest news about this satellite

There are no fresh news available about this satellite. Check back as we update our databases every day.


Newsletter sign-up

Weekly statistics, charts and insights to help you stay on top of the space industry.